Weather History for Berlin, NH

Change the Weather History Date:

Friday, February 8, 2013

  Actual Average Record
Temperature  
Mean Temperature 14 °F -  
Max Temperature 19 °F 26 °F 45 °F (2009)
Min Temperature 8 °F 0 °F -18 °F (2000)
Degree Days  
Heating Degree Days 52    
Moisture  
Dew Point 7 °F    
Average Humidity 74    
Maximum Humidity 81    
Minimum Humidity 46    
Precipitation  
Precipitation 0.04 in - - ()
Sea Level Pressure  
Sea Level Pressure 30.25 in    
Wind  
Wind Speed 4 mph (North)    
Max Wind Speed 13 mph    
Max Gust Speed 22 mph    
Visibility 3 miles    
Events Snow    
Averages and records for this station are not official NWS values.
T = Trace of Precipitation, MM = Missing Value Source: NWS Daily Summary

Daily Weather History Graph

Daily Weather History Graph

Search for Another Location

Airport:

Trip Planner

Search our weather history database for the weather conditions in past years. The results will help you decide how hot, cold, wet, or windy it might be!

Date:

Astronomy

Feb. 08, 2013 Rise Set
Actual Time 6:54 AM EST 5:03 PM EST
Civil Twilight 6:24 AM EST 5:34 PM EST
Nautical Twilight 5:49 AM EST 6:08 PM EST
Astronomical Twilight 5:15 AM EST 6:42 PM EST
Moon 5:22 AM EST (2/8) 3:32 PM EST (2/8)
Length of Visible Light 11h 10m
Length of Day
10h 09m
Waning Crescent, 3% of the Moon is Illuminated
Feb 8
Waning Crescent
Feb 10
New
Feb 17
First Quarter
Feb 25
Full
Mar 4
Last Quarter

Hourly Weather History & Observations

Time (EST) Temp. Windchill Dew Point Humidity Pressure Visibility Wind Dir Wind Speed Gust Speed Precip Events Conditions
12:52 AM 8.1 °F - -9.0 °F 46% 30.50 in 10.0 mi Calm Calm - N/A   Overcast
1:52 AM 8.1 °F -0.5 °F -6.0 °F 53% 30.49 in 10.0 mi North 4.6 mph - N/A   Overcast
2:52 AM 8.1 °F -0.5 °F -4.0 °F 58% 30.47 in 9.0 mi NNW 4.6 mph - N/A   Overcast
3:52 AM 8.1 °F -0.5 °F -0.0 °F 70% 30.45 in 3.0 mi NNW 4.6 mph - 0.00 in Snow Light Snow
4:14 AM 8.6 °F 2.0 °F 1.4 °F 73% 30.36 in 2.0 mi NNW 3.5 mph - 0.00 in Snow Light Snow
4:26 AM 8.6 °F 2.0 °F 1.4 °F 73% 30.35 in 1.8 mi NNW 3.5 mph - 0.00 in Snow Light Snow
4:33 AM 8.6 °F 0.1 °F 1.4 °F 73% 30.35 in 2.0 mi NNW 4.6 mph - 0.00 in Snow Light Snow
4:41 AM 8.6 °F 2.0 °F 1.4 °F 73% 30.35 in 2.5 mi NNW 3.5 mph - 0.00 in Snow Light Snow
4:52 AM 8.1 °F -0.5 °F 1.9 °F 76% 30.43 in 3.0 mi NNW 4.6 mph - 0.00 in Snow Light Snow
5:06 AM 8.6 °F -1.3 °F 1.4 °F 73% 30.34 in 2.5 mi NNW 5.8 mph - 0.00 in Snow Light Snow
5:27 AM 8.6 °F 2.0 °F 1.4 °F 73% 30.34 in 3.0 mi NW 3.5 mph - 0.00 in Snow Light Snow
5:52 AM 8.1 °F - 3.0 °F 80% 30.43 in 2.5 mi Calm Calm - 0.00 in Snow Light Snow
5:59 AM 8.6 °F 0.1 °F 3.2 °F 79% 30.34 in 1.8 mi NNW 4.6 mph - 0.00 in Snow Light Snow
6:52 AM 10.9 °F - 5.0 °F 77% 30.42 in 1.8 mi Calm Calm - 0.01 in Snow Light Snow
7:01 AM 10.4 °F 4.0 °F 5.0 °F 79% 30.33 in 2.0 mi Variable 3.5 mph - 0.00 in Snow Light Snow
7:33 AM 12.2 °F -0.2 °F 5.0 °F 73% 30.33 in 1.8 mi SSE 9.2 mph 17.3 mph 0.00 in Snow Light Snow
7:44 AM 12.2 °F 2.9 °F 5.0 °F 73% 30.34 in 2.5 mi SSE 5.8 mph - 0.00 in Snow Light Snow
7:52 AM 12.0 °F 5.9 °F 5.0 °F 73% 30.43 in 2.0 mi Variable 3.5 mph - 0.00 in Snow Light Snow
7:59 AM 12.2 °F 6.1 °F 5.0 °F 73% 30.34 in 1.5 mi Variable 3.5 mph - 0.00 in Snow Light Snow
8:29 AM 12.2 °F - 6.8 °F 79% 30.33 in 2.0 mi Calm Calm - 0.00 in Snow Light Snow
8:52 AM 10.0 °F - 5.0 °F 80% 30.42 in 2.5 mi Calm Calm - 0.00 in Snow Light Snow
9:08 AM 10.4 °F -1.5 °F 3.2 °F 73% 30.32 in 3.0 mi NNW 8.1 mph - 0.00 in Snow Light Snow
9:52 AM 12.0 °F 1.5 °F 5.0 °F 73% 30.40 in 3.0 mi NNW 6.9 mph - 0.00 in Snow Light Snow
10:03 AM 12.2 °F 1.7 °F 6.8 °F 79% 30.30 in 2.0 mi North 6.9 mph - 0.00 in Snow Light Snow
10:35 AM 14.0 °F 2.9 °F 6.8 °F 73% 30.29 in 1.8 mi NNW 8.1 mph - 0.00 in Snow Light Snow
10:52 AM 14.0 °F 2.9 °F 8.1 °F 77% 30.37 in 2.0 mi NNW 8.1 mph - 0.00 in Snow Light Snow
11:11 AM 15.8 °F 8.6 °F 8.6 °F 73% 30.27 in 2.5 mi NW 4.6 mph - 0.00 in Snow Light Snow
11:18 AM 15.8 °F 8.6 °F 8.6 °F 73% 30.27 in 3.0 mi NNW 4.6 mph - 0.00 in Snow Light Snow
11:29 AM 15.8 °F 7.2 °F 8.6 °F 73% 30.27 in 2.5 mi NNW 5.8 mph - 0.00 in Snow Light Snow
11:37 AM 15.8 °F 7.2 °F 8.6 °F 73% 30.26 in 1.2 mi NNW 5.8 mph - 0.00 in Snow Light Snow
11:52 AM 16.0 °F 7.4 °F 10.0 °F 77% 30.33 in 1.2 mi NNW 5.8 mph - 0.00 in Snow Light Snow
11:59 AM 15.8 °F 7.2 °F 10.4 °F 79% 30.25 in 1.5 mi North 5.8 mph - 0.00 in Snow Light Snow
12:15 PM 15.8 °F 7.2 °F 10.4 °F 79% 30.24 in 1.2 mi North 5.8 mph - 0.00 in Snow Light Snow
12:35 PM 15.8 °F 6.1 °F 10.4 °F 79% 30.23 in 1.8 mi NNW 6.9 mph - 0.00 in Snow Light Snow
12:42 PM 15.8 °F 8.6 °F 10.4 °F 79% 30.23 in 2.0 mi NNW 4.6 mph - 0.00 in Snow Light Snow
12:52 PM 16.0 °F 6.3 °F 10.9 °F 81% 30.31 in 2.0 mi NNW 6.9 mph - 0.00 in Snow Light Snow
1:08 PM 17.6 °F 10.7 °F 10.4 °F 73% 30.21 in 1.8 mi NNW 4.6 mph - 0.00 in Snow Light Snow
1:21 PM 17.6 °F 8.2 °F 10.4 °F 73% 30.21 in 1.0 mi North 6.9 mph - 0.00 in Snow Light Snow
1:32 PM 17.6 °F 12.3 °F 12.2 °F 79% 30.20 in 0.8 mi NNW 3.5 mph - 0.00 in Snow Light Snow
1:41 PM 17.6 °F 10.7 °F 12.2 °F 79% 30.20 in 1.0 mi NNW 4.6 mph - 0.00 in Snow Light Snow
1:52 PM 17.1 °F 10.0 °F 12.0 °F 81% 30.27 in 1.2 mi NW 4.6 mph - 0.01 in Snow Light Snow
2:06 PM 17.6 °F - 12.2 °F 79% 30.18 in 1.5 mi Calm Calm - 0.00 in Snow Light Snow
2:28 PM 17.6 °F 8.2 °F 10.4 °F 73% 30.17 in 2.5 mi East 6.9 mph - 0.00 in Snow Light Snow
2:39 PM 19.4 °F 11.5 °F 10.4 °F 68% 30.16 in 3.0 mi East 5.8 mph - 0.00 in Snow Light Snow
2:52 PM 19.0 °F 10.0 °F 10.9 °F 71% 30.23 in 6.0 mi East 6.9 mph - 0.00 in   Haze
3:52 PM 18.0 °F 6.9 °F 9.0 °F 68% 30.21 in 10.0 mi SE 9.2 mph 17.3 mph N/A   Overcast
4:52 PM 17.1 °F 3.6 °F 8.1 °F 68% 30.19 in 6.0 mi SSE 12.7 mph 21.9 mph N/A   Haze
5:39 PM 17.6 °F 5.7 °F 8.6 °F 68% 30.11 in 3.0 mi SE 10.4 mph 17.3 mph 0.00 in Snow Light Snow
5:52 PM 16.0 °F 7.4 °F 9.0 °F 74% 30.19 in 3.0 mi East 5.8 mph - 0.00 in Snow Light Snow
6:10 PM 15.8 °F - 10.4 °F 79% 30.10 in 2.0 mi Calm Calm - 0.00 in Snow Light Snow
6:17 PM 15.8 °F - 10.4 °F 79% 30.10 in 1.5 mi Calm Calm - 0.00 in Snow Light Snow
6:44 PM 15.8 °F - 10.4 °F 79% 30.10 in 2.0 mi Calm Calm - 0.00 in Snow Light Snow
6:52 PM 16.0 °F - 10.9 °F 81% 30.18 in 1.5 mi Calm Calm - 0.00 in Snow Light Snow
7:18 PM 15.8 °F - 10.4 °F 79% 30.09 in 2.0 mi Calm Calm - 0.00 in Snow Light Snow
7:36 PM 15.8 °F 7.2 °F 6.8 °F 68% 30.08 in 5.0 mi East 5.8 mph - 0.00 in Snow Light Snow
7:52 PM 15.1 °F 4.2 °F 6.1 °F 68% 30.16 in 6.0 mi East 8.1 mph - 0.00 in Snow Light Snow
8:52 PM 14.0 °F 1.2 °F 6.1 °F 71% 30.11 in 3.0 mi North 10.4 mph - 0.00 in Snow Light Snow
9:21 PM 14.0 °F 5.1 °F 6.8 °F 73% 30.02 in 2.5 mi NNE 5.8 mph - 0.00 in Snow Light Snow
9:40 PM 14.0 °F 5.1 °F 6.8 °F 73% 30.01 in 2.5 mi NNE 5.8 mph - 0.00 in Snow Light Snow
9:52 PM 14.0 °F 6.5 °F 7.0 °F 74% 30.08 in 2.0 mi North 4.6 mph - 0.00 in Snow Light Snow
10:05 PM 14.0 °F 5.1 °F 6.8 °F 73% 29.99 in 1.8 mi North 5.8 mph - 0.00 in Snow Light Snow
10:36 PM 14.0 °F 5.1 °F 6.8 °F 73% 29.97 in 2.0 mi North 5.8 mph - 0.01 in Snow Light Snow
10:52 PM 14.0 °F 5.1 °F 7.0 °F 74% 30.03 in 1.8 mi NNE 5.8 mph - 0.01 in Snow Light Snow
11:42 PM 12.2 °F 1.7 °F 6.8 °F 79% 29.93 in 1.2 mi North 6.9 mph - 0.01 in Snow Light Snow
11:52 PM 10.9 °F -2.6 °F 6.1 °F 81% 30.00 in 0.8 mi NNW 10.4 mph - 0.01 in Snow Light Snow